GW3523 Weather Reports


time (UTC)temp
C
wind
direction
speed
KPH
gust
KPH
rain 1hr
cm
rain 24hr
cm
rain mn
cm
humidity
%
barometer
mb
20260507040607 9 273 0.0 0.0 0.00 0.00 0.00 93 1010.8
20260507035559 9 273 0.0 0.0 0.00 0.94 0.94 92 1011.1
20260507035055 8 278 0.0 0.0 0.00 0.94 0.94 92 1011.3
20260507034552 9 279 0.0 0.0 0.00 0.94 0.94 92 1011.4
20260507034050 9 251 0.0 0.0 0.00 0.94 0.94 93 1011.0
20260507033548 9 268 0.0 0.0 0.00 0.94 0.94 92 1011.2
20260507033045 9 268 0.0 0.0 0.00 0.94 0.94 93 1011.2
20260507032542 9 267 0.0 0.0 0.00 0.94 0.94 92 1010.8
20260507032038 9 278 0.0 0.0 0.00 0.94 0.94 92 1010.7
20260507031534 9 273 0.0 0.0 0.00 0.94 0.94 92 1011.0
20260507031031 9 274 0.0 0.0 0.00 0.94 0.94 92 1010.7
20260507030528 9 261 0.0 0.0 0.00 0.94 0.94 92 1010.7
20260507030026 9 262 0.0 0.0 0.00 0.94 0.94 92 1010.8
20260507025523 9 258 0.0 0.0 0.00 0.94 0.94 92 1010.8
20260507025020 9 280 0.0 0.0 0.00 0.94 0.94 92 1010.6
20260507024518 9 278 0.0 0.0 0.00 0.94 0.94 92 1010.8
20260507024014 9 283 0.0 0.0 0.00 0.94 0.94 92 1010.9
20260507023510 9 260 0.0 0.0 0.00 0.94 0.94 93 1010.9
20260507023003 9 263 0.0 0.0 0.00 0.94 0.94 93 1010.9
20260507022459 9 267 0.0 0.0 0.00 0.94 0.94 93 1010.9
20260507021954 9 287 0.0 0.0 0.00 0.94 0.94 93 1011.4
20260507021450 9 260 0.0 0.0 0.00 0.94 0.94 93 1011.3
20260507020947 9 265 0.0 0.0 0.00 0.94 0.94 93 1011.3
20260507020444 9 342 0.0 1.6 0.00 0.94 0.94 93 1011.3
20260507015941 9 262 0.0 1.6 0.00 0.94 0.94 92 1011.4
20260507015440 9 265 1.6 1.6 0.00 0.94 0.94 93 1011.8
20260507014936 9 265 1.6 3.2 0.00 0.94 0.94 93 1011.4
20260507014433 9 308 1.6 3.2 0.00 0.94 0.94 93 1011.6
20260507013929 9 281 0.0 0.0 0.00 0.94 0.94 92 1011.4
20260507013426 9 246 0.0 0.0 0.00 0.94 0.94 92 1011.4
20260507012924 9 295 0.0 1.6 0.00 0.94 0.94 93 1011.4
20260507012420 9 260 0.0 0.0 0.00 0.94 0.94 93 1011.5
20260507011916 10 322 0.0 1.6 0.00 0.94 0.94 93 1011.6
20260507011413 10 278 1.6 1.6 0.00 0.94 0.94 93 1011.5
20260507010908 10 252 0.0 1.6 0.00 0.94 0.94 93 1011.3
20260507010403 10 235 1.6 1.6 0.00 0.94 0.94 93 1011.0
20260507005901 10 275 0.0 0.0 0.00 0.94 0.94 93 1011.2
20260507005357 10 264 0.0 0.0 0.00 0.94 0.94 93 1011.1
20260507004854 10 297 1.6 3.2 0.00 0.94 0.94 94 1010.9
20260507004351 10 307 1.6 3.2 0.00 0.94 0.94 94 1010.8
20260507003850 10 317 3.2 3.2 0.00 0.94 0.94 94 1010.6
20260507003344 10 258 1.6 1.6 0.00 0.94 0.94 94 1010.5
20260507002839 10 271 0.0 0.0 0.00 0.94 0.94 94 1010.6
20260507002335 10 276 0.0 0.0 0.00 0.94 0.94 95 1010.4
20260507001833 10 275 0.0 0.0 0.00 0.94 0.94 95 1010.4
20260507001329 10 267 0.0 0.0 0.00 0.94 0.94 95 1010.2
20260507000826 10 283 3.2 3.2 0.00 0.94 0.94 95 1009.9
20260507000321 10 271 0.0 0.0 0.00 0.94 0.94 95 1010.3
20260506235818 10 285 1.6 1.6 0.00 0.94 0.94 95 1009.9
20260506235315 10 283 0.0 1.6 0.00 0.94 0.94 95 1009.8
20260506234811 10 276 1.6 1.6 0.00 0.94 0.94 95 1009.8
20260506234309 11 266 0.0 1.6 0.00 0.94 0.94 96 1009.5
20260506233806 11 282 1.6 1.6 0.00 0.94 0.94 96 1009.4
20260506233256 11 308 1.6 1.6 0.00 0.94 0.94 96 1009.6
20260506232753 11 307 1.6 1.6 0.00 0.94 0.94 96 1009.5
20260506232248 11 310 1.6 1.6 0.00 0.94 0.94 96 1009.4
20260506231745 11 152 3.2 3.2 0.00 0.94 0.94 96 1009.2
20260506231244 11 250 0.0 0.0 0.00 0.94 0.94 96 1009.1
20260506230740 11 273 0.0 0.0 0.00 0.94 0.94 97 1009.1
20260506230237 11 261 0.0 0.0 0.00 0.94 0.94 97 1009.2
20260506225734 12 281 0.0 0.0 0.00 0.94 0.94 97 1009.1
20260506225231 12 301 1.6 1.6 0.00 0.94 0.94 96 1008.8
20260506224727 13 261 0.0 1.6 0.18 0.94 0.94 96 1008.4
20260506224224 13 282 1.6 3.2 0.18 0.94 0.94 94 1008.3
20260506223720 16 283 6.4 9.7 0.00 0.91 0.91 93 1008.1
20260506223216 16 259 0.0 0.0 0.00 0.91 0.91 95 1007.6
20260506222714 16 268 0.0 1.6 0.00 0.91 0.91 95 1007.6
20260506222209 16 271 0.0 0.0 0.00 0.91 0.91 95 1007.4
20260506221707 16 289 0.0 0.0 0.00 0.91 0.91 96 1007.2
20260506221205 16 258 0.0 0.0 0.00 0.91 0.91 96 1007.3
20260506220702 16 264 0.0 0.0 0.00 0.91 0.91 96 1007.3
20260506220157 16 267 0.0 0.0 0.00 0.91 0.91 96 1007.2
20260506215653 16 267 0.0 0.0 0.00 0.91 0.91 96 1007.1
20260506215149 16 273 0.0 0.0 0.00 0.91 0.91 95 1007.1
20260506214646 16 263 0.0 0.0 0.00 0.91 0.91 94 1007.0
20260506214143 16 264 0.0 0.0 0.00 0.91 0.91 94 1006.9
20260506213642 16 266 0.0 0.0 0.00 0.91 0.91 93 1006.7
20260506213138 17 266 0.0 0.0 0.00 0.91 0.91 92 1006.9
20260506212636 17 270 0.0 0.0 0.00 0.91 0.91 91 1006.9
20260506212130 17 250 0.0 0.0 0.00 0.91 0.91 90 1006.8
20260506211626 17 265 0.0 0.0 0.00 0.91 0.91 89 1006.6
20260506211123 18 272 0.0 0.0 0.00 0.91 0.91 89 1006.3
20260506210620 18 235 3.2 3.2 0.00 0.91 0.91 88 1006.3
20260506210117 18 268 0.0 0.0 0.00 0.91 0.91 88 1006.4
20260506205614 18 267 0.0 0.0 0.00 0.91 0.91 88 1006.3
20260506205108 18 264 0.0 1.6 0.00 0.91 0.91 89 1006.4
20260506204607 17 250 0.0 1.6 0.00 0.91 0.91 90 1006.4
20260506204104 18 269 0.0 0.0 0.00 0.91 0.91 91 1006.3
20260506203602 17 263 0.0 0.0 0.00 0.91 0.91 90 1006.3
20260506203058 17 272 0.0 0.0 0.00 0.91 0.91 91 1006.3
20260506202556 17 271 0.0 0.0 0.00 0.91 0.91 92 1006.3
20260506202052 17 240 1.6 3.2 0.00 0.91 0.91 92 1006.4
20260506201550 17 265 0.0 0.0 0.00 0.91 0.91 92 1006.3
20260506201046 17 220 0.0 1.6 0.00 0.91 0.91 92 1006.3
20260506200542 17 259 0.0 0.0 0.00 0.91 0.91 93 1006.3
20260506200039 17 270 0.0 0.0 0.00 0.91 0.91 94 1006.6
20260506195536 17 255 0.0 0.0 0.00 0.91 0.91 95 1006.3
20260506195032 16 238 0.0 1.6 0.00 0.91 0.91 95 1006.2
20260506194530 16 260 0.0 0.0 0.00 0.91 0.91 96 1006.7
20260506194026 16 259 0.0 0.0 0.00 0.91 0.91 96 1006.7
20260506193523 16 259 0.0 1.6 0.00 0.91 0.91 95 1006.6
20260506193021 16 168 3.2 3.2 0.00 0.91 0.91 95 1006.6
20260506192517 16 274 0.0 0.0 0.00 0.91 0.91 96 1006.6
20260506192013 16 275 1.6 1.6 0.00 0.91 0.91 96 1006.8
20260506191510 16 267 0.0 0.0 0.00 0.91 0.91 96 1006.6
20260506191006 17 265 0.0 0.0 0.00 0.91 0.91 96 1006.6
20260506190504 16 266 3.2 4.8 0.00 0.91 0.91 95 1006.7
20260506190000 17 229 3.2 3.2 0.00 0.91 0.91 96 1006.6
20260506185458 16 269 0.0 0.0 0.00 0.91 0.91 96 1006.7
20260506184954 16 265 0.0 0.0 0.00 0.91 0.91 96 1006.9
20260506184451 17 295 0.0 0.0 0.00 0.91 0.91 97 1006.8
20260506183948 17 262 0.0 0.0 0.00 0.91 0.91 98 1006.8
20260506183444 16 269 0.0 1.6 0.00 0.91 0.91 98 1006.8
20260506182941 16 257 1.6 1.6 0.00 0.91 0.91 99 1006.8
20260506182438 16 258 3.2 3.2 0.00 0.91 0.91 99 1007.0
20260506181936 16 256 0.0 1.6 0.00 0.91 0.91 99 1007.1
20260506181434 16 241 0.0 1.6 0.00 0.91 0.91 99 1007.1
20260506180930 15 209 1.6 3.2 0.00 0.91 0.91 99 1007.0
20260506180426 15 280 1.6 1.6 0.00 0.91 0.91 99 1006.9
20260506175923 15 307 1.6 1.6 0.00 0.91 0.91 99 1007.1
20260506175420 15 271 0.0 1.6 0.13 0.91 0.91 99 1007.1
20260506174917 15 272 0.0 0.0 0.13 0.91 0.91 99 1007.2
20260506174414 15 253 0.0 0.0 0.00 0.89 0.89 99 1007.1
20260506173911 15 265 0.0 0.0 0.18 0.89 0.89 99 1007.1
20260506173408 15 270 0.0 0.0 0.18 0.89 0.89 99 1007.1
20260506172905 15 271 0.0 0.0 0.18 0.86 0.86 99 1007.0
20260506172402 15 257 0.0 0.0 0.30 0.86 0.86 99 1007.0
20260506171859 15 201 0.0 0.0 0.13 0.84 0.84 99 1006.9
20260506171356 15 258 1.6 1.6 0.18 0.81 0.81 99 1007.2
20260506170854 15 239 0.0 0.0 0.18 0.81 0.81 99 1007.4
20260506170349 15 268 0.0 0.0 0.00 0.79 0.79 99 1007.4
20260506165843 15 260 0.0 0.0 0.00 0.79 0.79 99 1007.4
20260506165341 15 274 0.0 0.0 0.13 0.79 0.79 98 1007.2
20260506164837 15 268 0.0 0.0 0.13 0.79 0.79 98 1007.1
20260506164334 15 273 0.0 0.0 0.00 0.76 0.76 98 1006.9
20260506163832 15 254 0.0 0.0 0.00 0.76 0.76 98 1007.2
20260506163326 15 250 1.6 3.2 0.00 0.76 0.76 98 1007.1
20260506162821 15 348 1.6 3.2 0.18 0.76 0.76 97 1007.4
20260506162319 15 188 3.2 3.2 0.18 0.76 0.76 97 1007.3
20260506161811 15 255 0.0 0.0 0.00 0.74 0.74 97 1007.3
20260506161308 15 63 3.2 4.8 0.00 0.74 0.74 97 1007.0
20260506160805 15 263 3.2 6.4 0.00 0.74 0.74 97 1007.2
20260506160301 15 185 1.6 3.2 0.00 0.74 0.74 97 1007.1
20260506155801 15 166 8.0 9.7 0.00 0.74 0.74 97 1007.3
20260506155257 15 267 1.6 1.6 0.13 0.74 0.74 97 1007.3
20260506153404 15 182 6.4 6.4 0.18 0.71 0.71 97 1007.4
20260506152901 15 251 0.0 0.0 0.13 0.69 0.69 98 1007.6
20260506152358 15 192 3.2 4.8 0.30 0.69 0.69 98 1007.4
20260506151857 15 216 0.0 0.0 0.30 0.66 0.66 98 1007.5
20260506151353 15 267 0.0 0.0 0.30 0.64 0.64 98 1007.5
20260506150851 15 255 0.0 0.0 0.48 0.61 0.61 98 1007.5
20260506150347 15 249 0.0 0.0 0.48 0.58 0.58 97 1007.8
20260506145844 15 262 0.0 0.0 0.18 0.53 0.53 97 1007.8
20260506145340 15 197 1.6 1.6 0.13 0.51 0.51 97 1007.4
20260506144838 15 289 3.2 4.8 0.30 0.51 0.51 96 1007.6
20260506144334 15 172 6.4 6.4 0.30 0.48 0.48 96 1007.3
20260506143833 15 183 1.6 3.2 0.13 0.46 0.46 97 1007.6
20260506143329 15 203 1.6 3.2 0.18 0.43 0.43 97 1007.5
20260506142828 15 261 0.0 0.0 0.18 0.43 0.43 97 1007.3
20260506142325 15 264 0.0 0.0 0.13 0.41 0.41 97 1007.4
20260506141824 15 263 1.6 1.6 0.13 0.41 0.41 96 1007.4
20260506141321 15 246 3.2 3.2 0.18 0.38 0.38 96 1007.3
20260506140819 15 267 0.0 0.0 0.30 0.38 0.38 95 1007.4
20260506140316 15 182 1.6 3.2 0.30 0.36 0.36 95 1007.6
20260506135813 15 159 6.4 6.4 0.18 0.33 0.33 95 1007.6
20260506135309 15 192 6.4 6.4 0.00 0.30 0.30 96 1007.5
20260506134806 15 224 3.2 3.2 0.13 0.30 0.30 96 1007.8
20260506134302 15 141 1.6 3.2 0.13 0.30 0.30 95 1007.7
20260506133759 14 263 3.2 6.4 0.18 0.28 0.28 95 1007.7
20260506133256 15 195 0.0 0.0 0.30 0.28 0.28 95 1007.8
20260506132753 15 264 3.2 3.2 0.30 0.25 0.25 95 1008.1
20260506132250 15 263 1.6 1.6 0.30 0.25 0.25 94 1008.0
20260506131748 15 164 4.8 6.4 0.36 0.23 0.23 94 1008.1
20260506131243 15 205 1.6 3.2 0.30 0.20 0.20 94 1008.1
20260506130740 15 241 0.0 1.6 0.30 0.18 0.18 94 1008.3
20260506130237 15 233 1.6 1.6 0.18 0.15 0.15 94 1008.2
20260506125736 15 269 0.0 1.6 0.13 0.13 0.13 94 1008.3
20260506125233 15 271 0.0 0.0 0.30 0.13 0.13 93 1008.3
20260506124731 15 287 0.0 0.0 0.18 0.10 0.10 93 1008.5
20260506124228 15 219 0.0 0.0 0.13 0.08 0.08 93 1008.3
20260506123726 15 274 0.0 0.0 0.30 0.08 0.08 91 1008.5
20260506123224 15 299 0.0 0.0 0.30 0.05 0.05 90 1008.2
20260506122721 15 277 0.0 0.0 0.13 0.03 0.03 87 1008.2
20260506122218 16 264 0.0 0.0 0.00 0.00 0.00 85 1008.1
20260506121716 16 289 1.6 1.6 0.00 0.00 0.00 84 1008.0
20260506121213 16 257 0.0 1.6 0.00 0.00 0.00 81 1007.8
20260506120710 16 213 3.2 4.8 0.00 0.00 0.00 80 1008.1
20260506120208 16 238 0.0 1.6 0.00 0.00 0.00 78 1008.0
20260506115706 16 246 0.0 0.0 0.00 0.00 0.00 79 1008.0
20260506115204 16 245 0.0 1.6 0.00 0.00 0.00 77 1007.7
20260506114701 17 169 4.8 4.8 0.00 0.00 0.00 76 1007.7
20260506114158 17 233 1.6 1.6 0.00 0.00 0.00 76 1007.7
20260506113657 17 22 1.6 3.2 0.00 0.00 0.00 73 1007.9
20260506113154 17 158 6.4 6.4 0.00 0.00 0.00 72 1007.7
20260506112650 17 160 4.8 6.4 0.00 0.00 0.00 71 1007.7
20260506112148 17 243 1.6 3.2 0.00 0.00 0.00 70 1007.6
20260506111645 17 156 4.8 4.8 0.00 0.00 0.00 70 1007.6
20260506111143 17 195 0.0 1.6 0.00 0.00 0.00 69 1007.5
20260506110640 17 133 8.0 12.9 0.00 0.00 0.00 68 1007.6
20260506110137 17 212 3.2 4.8 0.00 0.00 0.00 69 1007.7
20260506105633 17 262 0.0 0.0 0.00 0.00 0.00 68 1007.2
20260506105130 17 271 0.0 0.0 0.00 0.00 0.00 68 1007.4
20260506104629 17 164 6.4 6.4 0.00 0.00 0.00 67 1007.3
20260506104126 17 153 4.8 4.8 0.00 0.00 0.00 68 1007.4
20260506103623 17 250 1.6 3.2 0.00 0.00 0.00 68 1007.3
20260506103120 17 162 4.8 4.8 0.00 0.00 0.00 67 1007.2
20260506102618 17 232 1.6 1.6 0.00 0.00 0.00 66 1007.0
20260506102115 18 277 0.0 1.6 0.00 0.00 0.00 65 1007.1
20260506101612 18 262 1.6 1.6 0.00 0.00 0.00 65 1007.0
20260506101109 18 159 8.0 11.3 0.00 0.00 0.00 64 1007.0
20260506100607 18 279 3.2 4.8 0.00 0.00 0.00 63 1007.2
20260506100105 18 273 8.0 14.5 0.00 0.00 0.00 63 1007.1
20260506095604 18 312 1.6 3.2 0.00 0.00 0.00 62 1006.8
20260506095100 18 231 3.2 3.2 0.00 0.00 0.00 61 1006.9
20260506094557 18 267 0.0 0.0 0.00 0.00 0.00 62 1007.0
20260506094055 18 251 0.0 1.6 0.00 0.00 0.00 62 1006.9
20260506093553 18 181 3.2 3.2 0.00 0.00 0.00 62 1007.1
20260506093051 18 257 0.0 0.0 0.00 0.00 0.00 62 1007.1
20260506092548 18 244 0.0 1.6 0.00 0.00 0.00 60 1007.3
20260506092045 18 164 6.4 6.4 0.00 0.00 0.00 59 1007.3
20260506091543 18 175 4.8 4.8 0.00 0.00 0.00 60 1007.3
20260506091040 18 265 1.6 1.6 0.00 0.00 0.00 60 1007.4
20260506090538 18 189 1.6 3.2 0.00 0.00 0.00 60 1007.4
20260506090034 18 254 1.6 3.2 0.00 0.00 0.00 59 1007.2
20260506085531 18 187 3.2 3.2 0.00 0.00 0.00 58 1007.2
20260506085027 18 168 6.4 9.7 0.00 0.00 0.00 57 1007.3
20260506084525 18 244 3.2 4.8 0.00 0.00 0.00 58 1007.4
20260506084020 18 174 8.0 9.7 0.00 0.00 0.00 56 1007.3
20260506083518 18 196 6.4 9.7 0.00 0.00 0.00 56 1007.5
20260506083015 18 144 9.7 12.9 0.00 0.00 0.00 55 1007.3
20260506082512 18 253 1.6 3.2 0.00 0.00 0.00 57 1007.3
20260506082007 18 194 4.8 6.4 0.00 0.00 0.00 54 1007.4
20260506081506 18 253 1.6 3.2 0.00 0.00 0.00 55 1007.3
20260506081003 19 173 4.8 6.4 0.00 0.00 0.00 54 1007.3
20260506080500 19 172 6.4 6.4 0.00 0.00 0.00 54 1007.4
20260506073444 19 183 9.7 12.9 0.00 0.00 0.00 52 1007.3
20260506072941 19 260 0.0 0.0 0.00 0.00 0.00 53 1007.4
20260506072438 19 182 6.4 6.4 0.00 0.00 0.00 52 1007.2
20260506071936 19 162 8.0 11.3 0.00 0.00 0.00 51 1007.6
20260506071433 19 215 3.2 3.2 0.00 0.00 0.00 52 1007.6
20260506070930 19 224 1.6 3.2 0.00 0.00 0.00 51 1007.7
20260506070427 19 267 4.8 9.7 0.00 0.00 0.00 50 1007.9
20260506062405 19 233 0.0 0.0 0.00 0.00 0.00 50 1008.1
20260506061900 19 248 1.6 1.6 0.00 0.00 0.00 50 1008.2
20260506061357 20 265 0.0 1.6 0.00 0.00 0.00 49 1008.2
20260506060855 20 179 4.8 4.8 0.00 0.00 0.00 48 1008.3
20260506060353 20 253 3.2 4.8 0.00 0.00 0.00 48 1008.2
20260506051325 19 262 0.0 0.0 0.00 0.00 0.00 48 1008.8
20260506050823 18 258 0.0 0.0 0.00 0.00 0.00 48 1008.7
20260506050320 18 283 0.0 0.0 0.00 0.00 0.00 49 1008.9
20260506044810 19 238 0.0 0.0 0.00 0.00 0.00 48 1008.9
20260506044308 19 269 0.0 0.0 0.00 0.00 0.00 47 1008.6
20260506043804 19 239 1.6 1.6 0.00 0.00 0.00 46 1008.6
20260506043302 19 155 4.8 4.8 0.00 0.00 0.00 46 1008.7
20260506042801 20 159 6.4 6.4 0.00 0.00 0.00 45 1008.8
20260506042259 19 276 1.6 3.2 0.00 0.00 0.00 46 1008.7
20260506041757 19 223 1.6 3.2 0.00 0.00 0.00 46 1008.8
20260506041254 20 200 6.4 9.7 0.00 0.00 0.00 45 1008.8